Regional Weather Roundup
Issued by NWS

Home | Current Version | Previous Version | Text Only | Print | Product List | Glossary On
Versions: 1 2 3 4 5 6 7 8 9 10 11 12 13 14 15 16 17 18 19 20 21 22 23 24 25 26 27 28 29 30 31 32 33 34 35 36 37 38 39 40 41 42 43 44 45 46 47 48 49 50
000
ASUS43 KMKX 281624
RWRWI

WISCONSIN REGIONAL WEATHER ROUNDUP
NATIONAL WEATHER SERVICE MILWAUKEE/SULLIVAN WI
1100 AM CDT SAT MAR 28 2015

NOTE: "FAIR" INDICATES FEW OR NO CLOUDS BELOW 12,000 FEET WITH NO
SIGNIFICANT WEATHER AND/OR OBSTRUCTIONS TO VISIBILITY.

WIZ001-002-006>008-014>016-023>028-281700-
NORTHWEST WISCONSIN

CITY           SKY/WX    TMP DP  RH WIND       PRES   REMARKS
SUPERIOR ARPT  SUNNY     35  13  39 W7        30.24F WCI  29
ASHLAND        SUNNY     37  11  34 SW6       30.24F WCI  32
HAYWARD        SUNNY     33   7  33 SW8       30.23S WCI  26
SIREN          SUNNY     36   7  30 S9        30.24S WCI  29
CUMBERLAND     SUNNY     32  12  43 S9        30.24F WCI  24
RICE LAKE      SUNNY     33  10  37 SW7       30.27S WCI  27
CHETEK         SUNNY     34  11  38 S7        30.26S WCI  28
LADYSMITH      SUNNY     34  16  47 S5        30.27S WCI  30
EAU CLAIRE     SUNNY     35  10  35 S6        30.27F WCI  30
MENOMONIE      SUNNY     35  10  36 S9        30.28S WCI  27
NEW RICHMOND   SUNNY     35  10  35 S9        30.25F WCI  27
OSCEOLA        SUNNY     35   8  32 SE10      30.28F WCI  27
$$

WIZ003>005-009-010-017-018-281700-
NORTH CENTRAL WISCONSIN

CITY           SKY/WX    TMP DP  RH WIND       PRES   REMARKS
MANITOWISH WTR SUNNY     31   8  37 CALM      30.21S
ARBOR VITAE    SUNNY     32   8  36 S3        30.21F
WOODRUFF       SUNNY     32   8  36 S3        30.21F
RHINELANDER    SUNNY     31  11  43 W6        30.23S WCI  25
EAGLE RIVER    SUNNY     29   3  33 CALM      30.21F
LAND O LAKES   SUNNY     31   4  31 CALM      30.21F
PHILLIPS       SUNNY     33   8  35 W7        30.22S WCI  26
TOMAHAWK       SUNNY     31   9  38 CALM      30.24S
MEDFORD        SUNNY     30  12  47 SW8       30.24S WCI  23
MERRILL        SUNNY     31  13  48 SW6       30.25S WCI  25
$$

WIZ029-030-035-036-043>047-281700-
CENTRAL WISCONSIN

CITY           SKY/WX    TMP DP  RH WIND       PRES   REMARKS
WAUSAU         SUNNY     31  10  41 W8        30.25F WCI  23
MOSINEE        SUNNY     30  14  51 SW6       30.28S WCI  24
MARSHFIELD     SUNNY     34   9  35 VRB5      30.26F WCI  30
STEVENS POINT  SUNNY     30   8  39 SW5       30.29S WCI  26
WAUPACA        SUNNY     34  12  41 SW5       30.31F WCI  29
WAUTOMA        SUNNY     34   9  35 SW7       30.31F WCI  28
WISC RAPIDS    SUNNY     33   8  35 VRB6      30.30S WCI  28
CAMP DOUGLAS   SUNNY     34   9  35 VRB1      30.29S
$$

WIZ011>013-019>022-031-037>040-048>050-281700-
NORTHEAST WISCONSIN

CITY           SKY/WX    TMP DP  RH WIND       PRES   REMARKS
ANTIGO         SUNNY     28  14  54 SW7       30.25S WCI  21
SHAWANO        SUNNY     32  16  51 W5        30.31F WCI  27
OCONTO         SUNNY     29  13  50 S7        30.32F WCI  22
STURGEON BAY   SUNNY     28  10  47 W9        30.35S WCI  20
GREEN BAY      SUNNY     30  15  53 VRB6      30.33S WCI  24
MANITOWOC      SUNNY     29  16  58 N5        30.34S WCI  24
APPLETON       SUNNY     30  12  47 SW7       30.32S WCI  23
CLINTONVILLE   SUNNY     32  12  43 SW8       30.31F WCI  25
OSHKOSH        SUNNY     30  12  47 MISG      30.32S
$$

WIZ032>034-041-042-053>061-281700-
SOUTHWEST WISCONSIN

CITY           SKY/WX    TMP DP  RH WIND       PRES   REMARKS
LA CROSSE      SUNNY     34  17  50 S6        30.31S WCI  29
SPARTA         SUNNY     35   5  28 SE6       30.30S WCI  30
VIROQUA        SUNNY     32  14  47 SW7       30.28S WCI  25
BOSCOBEL       SUNNY     33  15  47 CALM      30.33S
PRAIRIE DU CHI SUNNY     32  12  44 SW3       30.32S
PLATTEVILLE    SUNNY     32  19  58 SE7       30.31S WCI  26
$$

WIZ056-057-062-063-064-067-068-281700-
SOUTH CENTRAL WISCONSIN

CITY           SKY/WX    TMP DP  RH WIND       PRES   REMARKS
REEDSBURG      SUNNY     32  14  48 S7        30.31S WCI  26
BARABOO/DELLS  SUNNY     32   9  37 S6        30.30S WCI  27
LONE ROCK      SUNNY     31  15  52 VRB6      30.33F WCI  25
MINERAL POINT  SUNNY     30  19  64 S3        30.31S
MADISON        SUNNY     31  14  49 VRB7      30.33R WCI  24
MIDDLETON      SUNNY     32  14  46 S7        30.33S WCI  26
WATERTOWN      SUNNY     31  13  47 CALM      30.33S
MONROE         SUNNY     32  18  55 CALM      30.31F
JANESVILLE     SUNNY     32   9  37 NE6       30.34R WCI  26
$$

WIZ051-052-058>065-066-070>072-281700-
SOUTHEAST WISCONSIN

CITY           SKY/WX    TMP DP  RH WIND       PRES   REMARKS
MILWAUKEE      MOSUNNY   31  15  52 E6        30.34S WCI  25
WAUKESHA       MOSUNNY   28  16  59 W5        30.34R WCI  23
MILWAUKEE/TIMM SUNNY     30  12  47 CALM      30.34S
RACINE         SUNNY     30  15  53 NE8       30.36S WCI  22
BURLINGTON     SUNNY     29  14  53 CALM      30.34S
KENOSHA        MOSUNNY   32  17  54 VRB6      30.34S WCI  26
FOND DU LAC    SUNNY     31  12  45 CALM      30.33R
SHEBOYGAN      SUNNY     28  14  55 VRB6      30.34R WCI  22
WEST BEND      SUNNY     30  10  43 CALM      30.33S
JUNEAU         SUNNY     29  12  49 W5        30.34R WCI  24
$$

LSZ147-162-281700-
LAKE SUPERIOR

STATION/POSITION TIME  TEMP    WIND        PRES    WAVE
                       AIR SEA DIR/SP/G            HT/PER
                 (UTC) (F)     (DEG/KT/KT) (MB)    (FT/S)
DEVILS ISLAND    1600   27     220/  5/  7 1025.4F
PORT WING        1500   29     310/  5/  6 1024.7
SAXON HARBOR     1500   29        CALM     1024.4F
$$

LMZ867-665-643>646-281700-
LAKE MICHIGAN

STATION/POSITION TIME  TEMP    WIND        PRES    WAVE
                       AIR SEA DIR/SP/G            HT/PER
                 (UTC) (F)     (DEG/KT/KT) (MB)    (FT/S)
NORTHPORT PIER   1423   24     360/  2/  4 1027.1S
SISTER BAY       1517   30        CALM       N/A
KEWAUNEE LAKESHO 1500   28     130/  2/  5 1026.4R
SHEBOYGAN LAKESH 1600   27     110/  3/  4 1028.8R
PORT WASHINGTON  1540   28     120/  6/  8 1028.1R
MILWAUKEE LAKESH 1600   28     110/  5/  6   N/A
KENOSHA   LAKESH 1600   26      90/  7/  8 1027.8S
$$

TC  - TEMPERATURE IN CELSIUS
VSB - VISIBILITY IN STATUTE MILES
WCI - WIND CHILL INDEX
HX  - HEAT INDEX



USA.gov is the U.S. government's official web portal to all federal, state and local government web resources and services.